VA7GFZ-13 Weather Reports


time (UTC)temp
C
wind
direction
speed
KPH
gust
KPH
rain 1hr
cm
rain 24hr
cm
rain mn
cm
humidity
%
barometer
mb
20260506051035 8 178 0.0 0.0 0.00 0.00 0.00 100
20260506045035 9 178 0.0 0.0 0.00 0.00 0.00 100
20260506041036 13 178 0.0 0.0 0.00 0.00 0.00 100
20260506040036 15 178 0.0 3.2 0.00 0.00 0.00 100
20260506035036 12 215 0.0 0.0 0.00 0.00 0.00 100
20260506034039 13 215 0.0 0.0 0.00 0.00 0.00 100
20260506032038 16 215 0.0 0.0 0.00 0.00 0.00 100
20260506025038 17 161 0.0 0.0 0.00 0.00 0.00 100
20260506021036 20 196 6.4 9.7 0.00 0.00 0.00 100
20260506020036 20 150 0.0 9.7 0.00 0.00 0.00 100
20260506015037 21 237 0.0 6.4 0.00 0.00 0.00 100
20260506010038 22 202 0.0 3.2 0.00 0.00 0.00 100
20260506002040 22 201 0.0 0.0 0.00 0.00 0.00 100
20260506001037 22 171 0.0 4.8 0.00 0.00 0.00 100
20260505232040 24 199 0.0 0.0 0.00 0.00 0.00 100
20260505225040 24 213 0.0 4.8 0.00 0.00 0.00 100
20260505224037 23 154 0.0 0.0 0.00 0.00 0.00 100
20260505222036 25 192 4.8 8.0 0.00 0.00 0.00 100
20260505215036 23 191 0.0 4.8 0.00 0.00 0.00 100
20260505212040 23 178 0.0 0.0 0.00 0.00 0.00 100
20260505205039 24 29 0.0 0.0 0.00 0.00 0.00 100
20260505202039 23 29 0.0 0.0 0.00 0.00 0.00 100
20260505195036 21 29 0.0 0.0 0.00 0.00 0.00 100
20260505194036 20 29 0.0 0.0 0.00 0.00 0.00 100
20260505192039 20 29 0.0 0.0 0.00 0.00 0.00 100
20260505191036 20 29 0.0 0.0 0.00 0.00 0.00 100
20260505185036 18 29 0.0 0.0 0.00 0.00 0.00 100
20260505184036 17 29 0.0 0.0 0.00 0.00 0.00 100
20260505182037 16 29 0.0 0.0 0.00 0.00 0.00 100
20260505181037 15 29 0.0 0.0 0.00 0.00 0.00 100
20260505175039 13 29 0.0 0.0 0.00 0.00 0.00 100
20260505174037 13 29 0.0 0.0 0.00 0.00 0.00 100
20260505173039 12 29 0.0 0.0 0.00 0.00 0.00 100
20260505172037 11 29 0.0 0.0 0.00 0.00 0.00 100
20260505171037 11 29 0.0 0.0 0.00 0.00 0.00 100
20260505165037 10 29 0.0 0.0 0.00 0.00 0.00 100
20260505164037 10 29 0.0 0.0 0.00 0.00 0.00 100
20260505152039 7 29 0.0 0.0 0.00 0.00 0.00 100
20260505125037 0 29 0.0 0.0 0.00 0.00 0.00 100
20260505124037 0 29 0.0 0.0 0.00 0.00 0.00 100
20260505122041 0 29 0.0 0.0 0.00 0.00 0.00 100
20260505120040 0 29 0.0 0.0 0.00 0.00 0.00 100
20260505115039 0 29 0.0 0.0 0.00 0.00 0.00 100
20260505112037 0 29 0.0 0.0 0.00 0.00 0.00 100
20260505111037 0 29 0.0 0.0 0.00 0.00 0.00 100
20260505102037 1 29 0.0 0.0 0.00 0.00 0.00 100
20260505101037 1 29 0.0 0.0 0.00 0.00 0.00 100
20260505100037 2 29 0.0 0.0 0.00 0.00 0.00 100
20260505095037 2 29 0.0 0.0 0.00 0.00 0.00 100
20260505093038 2 29 0.0 0.0 0.00 0.00 0.00 100
20260505092037 2 29 0.0 0.0 0.00 0.00 0.00 100
20260505091037 2 29 0.0 0.0 0.00 0.00 0.00 100
20260505085038 2 29 0.0 0.0 0.00 0.00 0.00 100
20260505084038 3 29 0.0 0.0 0.00 0.00 0.00 100
20260505082038 4 29 0.0 0.0 0.00 0.00 0.00 100
20260505081038 5 29 0.0 0.0 0.00 0.00 0.00 100
20260505080040 5 29 0.0 0.0 0.00 0.00 0.00 100
20260505075040 5 29 0.0 0.0 0.00 0.00 0.00 100
20260505074038 6 29 0.0 0.0 0.00 0.00 0.00 100
20260505073040 7 29 0.0 0.0 0.00 0.00 0.00 100
20260505072038 7 29 0.0 0.0 0.00 0.00 0.00 100
20260505065038 10 305 0.0 0.0 0.00 0.00 0.00 100
20260505063040 9 305 0.0 0.0 0.00 0.00 0.00 100
20260505062038 10 305 0.0 0.0 0.00 0.00 0.00 100
20260505060040 10 305 0.0 0.0 0.00 0.00 0.00 100
20260505055040 10 305 0.0 0.0 0.00 0.00 0.00 100